Location: Most
(50.5133°N, 13.6207°E)
Time: 17:24:30
(UTC+02:00)

Nauka - Pass Details

Date: 22 September 2021
Orbit: 417 x 423 km, 51.6° (Epoch: 26 October)

Event Time Altitude Azimuth Distance (km) Brightness Sun altitude
Rises 20:53:07 0° 263° (W) 2,362 ? -17.8°
Reaches altitude 10° 20:55:13 10° 265° (W) 1,500 ? -18.1°
Maximum altitude 20:58:35 77° 352° (N) 436 ? -18.6°
Enters shadow 20:59:09 58° 60° (ENE) 498 ? -18.7°
